Regional Weather Roundup
Issued by NWS

Home | Current Version | Previous Version | Text Only | Print | Product List | Glossary On
Versions: 1 2 3 4 5 6 7 8 9 10 11 12 13 14 15 16 17 18 19 20 21 22 23 24 25 26 27 28 29 30 31 32 33 34 35 36 37 38 39 40 41 42 43 44 45 46 47 48 49 50
000
ASUS43 KFSD 271810
RWRSD

WEATHER ROUNDUP FOR SOUTH DAKOTA
NATIONAL WEATHER SERVICE SIOUX FALLS SD
100 PM CDT TUE JUN 27 2017

NOTE: "FAIR" INDICATES FEW OR NO CLOUDS BELOW 12,000 FEET WITH NO
SIGNIFICANT WEATHER AND/OR OBSTRUCTIONS TO VISIBILITY.


SDZ001>005-009-010-012>017-271900-
NORTHWEST AND NORTH CENTRAL SOUTH DAKOTA

CITY           SKY/WX    TMP DP  RH WIND       PRES   REMARKS
BUFFALO          N/A     92  51  24 W18       29.58S
FAITH            N/A     84  58  40 S18G29    29.63F
MOBRIDGE       SUNNY     83  54  36 S24G35    29.66F
$$

SDZ012>016-024>037-041>051-057-063-072>074-271900-
SOUTHWEST AND SOUTH CENTRAL SOUTH DAKOTA

CITY           SKY/WX    TMP DP  RH WIND       PRES   REMARKS
RAPID CTY ARPT SUNNY     81  57  43 S14       29.66S
PIERRE         SUNNY     83  57  41 S24G41    29.67F
CUSTER         CLOUDY    86  37  17 NW10G20   29.83S
ELLSWORTH AFB  PTSUNNY   86  57  36 E5        29.65F
PHILIP         SUNNY     87  59  38 S22       29.64F
PINE RIDGE     MOSUNNY   83  59  44 S22G29    29.73F
SPEARFISH      LGT RAIN  84  52  32 W10G20    29.73S
WINNER         FAIR      85  57  38 S26G38    29.75F
$$

SDZ004>011-016>023-039-040-271900-
NORTHEAST SOUTH DAKOTA

CITY           SKY/WX    TMP DP  RH WIND       PRES   REMARKS
ABERDEEN       CLOUDY    76  48  37 S20G33    29.80F
WATERTOWN      SUNNY     72  45  37 S24G31    29.87F
BROOKINGS      SUNNY     73  47  39 S22G30    29.90F
SISSETON         N/A     76  47  35 S22G30    29.84F
$$

SDZ017-020-022-023-036>040-048>070-271900-
SOUTHEAST SOUTH DAKOTA

CITY           SKY/WX    TMP DP  RH WIND       PRES   REMARKS
SIOUX FALLS    PTSUNNY   74  54  49 S21G29    29.93F
HURON          SUNNY     77  49  37 S23G32    29.82F
CHAMBERLAIN    SUNNY     82  56  41 SE22G31   29.77F
MITCHELL       SUNNY     78  47  33 S16G31    29.86F
YANKTON        SUNNY     77  53  43 S21       29.91F
$$

ABBREVIATIONS USED IN REMARKS
   TC - TEMPERATURE IN CELSIUS
  WCI - WIND CHILL INDEX
   HX - HEAT INDEX
  VSB - VISIBILITY





USA.gov is the U.S. government's official web portal to all federal, state and local government web resources and services.